Weather History for KEFT - July, 2013

Change the Weather History Date:

Thursday, July 25, 2013

  Actual Average Record
Temperature  
Mean Temperature 68 °F -  
Max Temperature 81 °F 83 °F 98 °F (2012)
Min Temperature 56 °F 59 °F 53 °F (2000)
Cooling Degree Days 3    
Growing Degree Days 18 (Base 50)    
Moisture  
Dew Point 57 °F    
Average Humidity 69    
Maximum Humidity 100    
Minimum Humidity 46    
Precipitation  
Precipitation 0.01 in - - ()
Sea Level Pressure  
Sea Level Pressure 30.06 in    
Wind  
Wind Speed 8 mph (SSW)    
Max Wind Speed 16 mph    
Max Gust Speed 23 mph    
Visibility 10 miles    
Events Rain    
Averages and records for this station are not official NWS values.
T = Trace of Precipitation, MM = Missing Value Source: NWS Daily Summary

Daily Weather History Graph

Daily Weather History Graph

Search for Another Location

Airport or City:

Trip Planner

Search our weather history database for the weather conditions in past years. The results will help you decide how hot, cold, wet, or windy it might be!

Date:

Astronomy

Jul. 25, 2013 Rise Set
Actual Time 5:43 AM CDT 8:25 PM CDT
Civil Twilight 5:10 AM CDT 8:58 PM CDT
Nautical Twilight 4:29 AM CDT 9:39 PM CDT
Astronomical Twilight 3:42 AM CDT 10:26 PM CDT
Moon 9:59 PM CDT (7/25) 9:18 AM CDT (7/25)
Length of Visible Light 15h 47m
Length of Day
14h 42m
Waning Gibbous, 88% of the Moon is Illuminated
Jul 25
Waning Gibbous
Jul 29
Last Quarter
Aug 6
New
Aug 14
First Quarter
Aug 20
Full

Hourly Weather History & Observations

Time (CDT) Temp. Heat Index Dew Point Humidity Pressure Visibility Wind Dir Wind Speed Gust Speed Precip Events Conditions
12:15 AM 63.0 °F - 49.3 °F 61% 30.07 in 10.0 mi SSE 5.8 mph - N/A   Clear
12:35 AM 63.0 °F - 49.1 °F 61% 30.07 in 10.0 mi SSE 5.8 mph - N/A   Clear
12:55 AM 62.6 °F - 48.7 °F 60% 30.07 in 10.0 mi SSE 5.8 mph - N/A   Clear
1:15 AM 62.4 °F - 48.6 °F 60% 30.06 in 10.0 mi SE 6.9 mph - N/A   Clear
1:35 AM 59.0 °F - 50.0 °F 72% 30.05 in 10.0 mi SE 5.8 mph - N/A   Clear
1:55 AM 59.4 °F - 50.9 °F 74% 30.05 in 10.0 mi SSE 6.9 mph - N/A   Clear
2:15 AM 59.0 °F - 55.4 °F 88% 30.05 in 10.0 mi South 6.9 mph - N/A   Clear
2:35 AM 58.3 °F - 55.9 °F 92% 30.06 in 10.0 mi South 5.8 mph - N/A   Clear
2:55 AM 57.7 °F - 55.9 °F 94% 30.06 in 10.0 mi South 6.9 mph - N/A   Clear
3:15 AM 57.7 °F - 56.3 °F 95% 30.05 in 10.0 mi South 6.9 mph - N/A   Clear
3:35 AM 57.2 °F - 56.3 °F 97% 30.06 in 10.0 mi South 8.1 mph - N/A   Clear
3:55 AM 57.6 °F - 56.8 °F 97% 30.07 in 10.0 mi SSW 8.1 mph - N/A   Clear
4:15 AM 57.6 °F - 56.7 °F 97% 30.07 in 10.0 mi SSW 8.1 mph - N/A   Clear
4:35 AM 57.2 °F - 56.5 °F 97% 30.08 in 10.0 mi SSW 8.1 mph - N/A   Clear
4:55 AM 57.0 °F - 56.5 °F 98% 30.07 in 10.0 mi South 9.2 mph - N/A   Clear
5:15 AM 56.7 °F - 56.5 °F 99% 30.08 in 10.0 mi SSW 8.1 mph - N/A   Scattered Clouds
5:35 AM 57.0 °F - 56.7 °F 99% 30.08 in 10.0 mi SSW 8.1 mph - N/A   Mostly Cloudy
5:55 AM 57.2 °F - 56.8 °F 99% 30.08 in 10.0 mi SSW 9.2 mph - N/A   Overcast
6:15 AM 58.5 °F - 57.0 °F 95% 30.09 in 10.0 mi SSW 8.1 mph - N/A   Overcast
6:35 AM 58.5 °F - 57.2 °F 96% 30.09 in 10.0 mi SSW 8.1 mph - N/A   Overcast
6:55 AM 59.0 °F - 57.2 °F 94% 30.09 in 10.0 mi SSW 8.1 mph - N/A   Overcast
7:15 AM 59.7 °F - 57.6 °F 93% 30.09 in 10.0 mi SSW 6.9 mph - N/A   Overcast
7:35 AM 61.0 °F - 55.6 °F 82% 30.09 in 10.0 mi SSW 8.1 mph - N/A   Mostly Cloudy
7:55 AM 63.1 °F - 53.2 °F 70% 30.09 in 10.0 mi SSW 8.1 mph - N/A   Scattered Clouds
8:15 AM 65.3 °F - 53.6 °F 66% 30.09 in 10.0 mi SSW 9.2 mph - N/A   Clear
8:35 AM 66.6 °F - 54.1 °F 64% 30.09 in 10.0 mi SSW 8.1 mph - N/A   Clear
8:55 AM 68.2 °F - 54.5 °F 62% 30.09 in 10.0 mi SSW 9.2 mph - N/A   Clear
9:15 AM 69.8 °F - 55.2 °F 60% 30.10 in 10.0 mi SSW 10.4 mph - N/A   Clear
9:35 AM 70.9 °F - 54.5 °F 56% 30.10 in 10.0 mi SW 11.5 mph - N/A   Clear
9:55 AM 71.8 °F - 55.2 °F 56% 30.10 in 10.0 mi SSW 9.2 mph - N/A   Clear
10:15 AM 72.5 °F - 55.2 °F 54% 30.09 in 10.0 mi SSW 10.4 mph - N/A   Scattered Clouds
10:35 AM 73.6 °F - 54.9 °F 52% 30.09 in 10.0 mi SSW 6.9 mph - N/A   Clear
10:55 AM 74.7 °F - 56.5 °F 53% 30.09 in 10.0 mi SW 10.4 mph - N/A   Clear
11:15 AM 75.0 °F - 56.3 °F 52% 30.10 in 10.0 mi SSW 6.9 mph - N/A   Clear
11:35 AM 76.1 °F - 55.9 °F 50% 30.10 in 10.0 mi SW 9.2 mph - N/A   Clear
11:55 AM 76.3 °F - 56.3 °F 50% 30.09 in 10.0 mi SW 8.1 mph - N/A   Clear
12:15 PM 77.2 °F - 56.7 °F 49% 30.09 in 10.0 mi SW 10.4 mph 16.1 mph N/A   Scattered Clouds
12:35 PM 77.9 °F - 57.0 °F 48% 30.09 in 10.0 mi SSW 8.1 mph 17.3 mph N/A   Scattered Clouds
12:55 PM 76.6 °F - 56.8 °F 50% 30.08 in 10.0 mi South 9.2 mph 19.6 mph N/A   Mostly Cloudy
1:15 PM 78.8 °F - 57.7 °F 48% 30.08 in 10.0 mi SSW 12.7 mph 18.4 mph N/A   Mostly Cloudy
1:35 PM 78.3 °F - 57.4 °F 49% 30.07 in 10.0 mi SSW 10.4 mph 19.6 mph N/A   Mostly Cloudy
1:55 PM 79.3 °F - 57.6 °F 47% 30.07 in 10.0 mi SSW 10.4 mph 18.4 mph N/A   Overcast
2:15 PM 78.8 °F - 57.0 °F 47% 30.06 in 10.0 mi WSW 13.8 mph 18.4 mph N/A   Overcast
2:35 PM 79.5 °F - 57.7 °F 47% 30.05 in 10.0 mi South 10.4 mph - N/A   Overcast
3:15 PM 79.9 °F - 57.6 °F 46% 30.04 in 10.0 mi SSW 11.5 mph - N/A   Scattered Clouds
3:35 PM 79.5 °F - 57.2 °F 46% 30.04 in 10.0 mi South 10.4 mph - N/A   Scattered Clouds
3:55 PM 80.4 °F 80.8 °F 58.1 °F 46% 30.04 in 10.0 mi SSW 13.8 mph - N/A   Clear
4:15 PM 79.2 °F - 57.9 °F 48% 30.04 in 10.0 mi SSW 10.4 mph - N/A   Scattered Clouds
4:35 PM 79.0 °F - 58.5 °F 49% 30.03 in 10.0 mi SSW 10.4 mph - N/A   Scattered Clouds
4:55 PM 78.3 °F - 58.8 °F 51% 30.03 in 10.0 mi SSW 11.5 mph - N/A   Clear
5:15 PM 78.8 °F - 59.4 °F 51% 30.04 in 10.0 mi SSW 12.7 mph - N/A   Clear
5:35 PM 78.1 °F - 59.7 °F 53% 30.04 in 10.0 mi SSW 11.5 mph - N/A   Clear
5:55 PM 77.5 °F - 59.4 °F 53% 30.04 in 10.0 mi SSW 11.5 mph - N/A   Clear
6:15 PM 77.0 °F - 59.9 °F 55% 30.04 in 10.0 mi SSW 10.4 mph - N/A   Clear
6:35 PM 76.6 °F - 59.9 °F 56% 30.04 in 7.0 mi SSW 9.2 mph - N/A   Clear
6:55 PM 76.1 °F - 60.1 °F 57% 30.03 in 10.0 mi SSW 8.1 mph - N/A   Clear
7:15 PM 75.4 °F - 60.4 °F 60% 30.02 in 10.0 mi South 8.1 mph - N/A   Clear
7:35 PM 74.8 °F - 60.4 °F 61% 30.03 in 10.0 mi SSW 9.2 mph - N/A   Clear
7:55 PM 74.3 °F - 60.4 °F 62% 30.03 in 10.0 mi SSW 9.2 mph - N/A   Clear
8:15 PM 73.8 °F - 60.8 °F 64% 30.04 in 10.0 mi SSW 9.2 mph - N/A   Clear
8:35 PM 73.6 °F - 60.8 °F 64% 30.04 in 10.0 mi SSW 10.4 mph - N/A   Clear
8:55 PM 73.4 °F - 60.8 °F 65% 30.05 in 10.0 mi SW 10.4 mph - N/A   Clear
9:15 PM 73.2 °F - 57.7 °F 58% 30.07 in 10.0 mi WNW 15.0 mph 23.0 mph N/A   Mostly Cloudy
9:35 PM 69.6 °F - 56.3 °F 63% 30.07 in 10.0 mi WNW 13.8 mph 18.4 mph N/A   Overcast
9:55 PM 68.5 °F - 56.8 °F 66% 30.07 in 10.0 mi West 13.8 mph 17.3 mph N/A   Scattered Clouds
10:15 PM 66.6 °F - 63.3 °F 89% 30.06 in 10.0 mi WSW 10.4 mph - N/A Rain Rain
10:35 PM 66.4 °F - 66.2 °F 99% 30.03 in 10.0 mi SSW 12.7 mph - N/A Rain Rain
10:55 PM 65.8 °F - 65.8 °F 100% 30.01 in 10.0 mi SSW 16.1 mph - N/A Rain Light Rain
11:15 PM 66.2 °F - 66.2 °F 100% 30.00 in 10.0 mi SW 13.8 mph - 0.01 in   Light Drizzle
11:35 PM 66.2 °F - 66.2 °F 100% 30.00 in 10.0 mi Calm Calm - 0.01 in   Clear
11:55 PM 65.3 °F - 65.3 °F 100% 30.00 in 10.0 mi Calm Calm - 0.01 in   Clear